Wind_Speed
44 43 42 42 41 40 39 39 38 38 37 37 36 36 36 36 36 36 36 36 36 36 36 36 36 37 37 38 40 41 43 44 45 46 48 49 50 52 52 53 54 55 56
42 42 42 41 40 40 39 38 37 37 36 36 36 35 35 35 36 36 36 36 36 36 36 36 36 37 38 39 41 43 44 45 47 48 50 51 52 54 55 56 57 58 59
42 42 41 40 39 38 37 37 36 36 35 35 35 35 35 36 36 36 36 35 36 36 36 36 37 38 39 41 42 44 45 47 48 50 51 53 54 56 57 58 59 61 61
41 40 39 38 37 36 36 35 35 35 34 34 34 35 35 35 35 35 35 35 35 35 36 37 38 39 41 42 43 45 47 48 50 51 53 54 56 58 59 60 61 63 63
39 39 38 37 36 36 35 35 34 35 34 34 34 34 34 34 34 34 34 35 35 36 37 37 38 40 41 43 44 46 48 50 51 53 55 57 58 60 61 63 64 65 65
37 37 36 35 35 34 34 34 34 34 33 33 33 33 33 33 33 33 34 34 35 36 37 38 39 40 42 44 46 48 49 51 53 55 57 58 60 62 64 65 65 66 66
35 35 34 34 33 33 33 33 33 32 32 32 32 32 32 32 32 33 33 34 35 36 37 38 39 41 43 45 47 49 51 53 55 56 58 60 62 63 65 65 65 65 66
34 34 33 33 32 32 32 32 32 31 31 31 31 31 31 32 32 33 34 34 35 36 37 39 40 42 44 46 47 49 52 54 55 58 60 62 63 64 65 65 65 66 67
33 33 32 32 31 31 31 31 30 30 30 30 30 30 31 31 32 33 34 34 35 36 38 39 41 42 44 46 48 50 53 54 57 59 61 62 63 64 65 65 66 66 65
32 32 31 31 30 30 30 30 30 30 30 30 30 30 30 31 32 33 33 34 35 37 38 40 41 43 45 47 49 52 53 56 58 60 61 63 64 65 65 65 65 65 64
32 31 30 30 29 29 29 29 29 29 29 29 29 30 30 31 32 32 33 34 35 37 39 40 42 44 46 49 51 52 55 57 59 61 62 63 64 64 64 64 63 63 62
31 30 30 29 29 29 29 28 28 28 28 29 29 30 30 31 32 33 34 35 36 38 39 41 43 45 47 49 51 54 56 59 60 62 63 63 64 63 62 62 61 60 59
31 30 29 29 28 28 28 28 28 28 28 29 29 29 30 31 32 33 34 35 37 38 40 42 44 46 48 50 52 55 57 59 61 61 62 63 63 62 60 59 58 58 56
31 30 29 28 28 27 27 27 27 28 28 28 29 29 30 31 32 33 34 36 37 38 40 43 45 47 49 51 53 56 57 59 60 61 62 62 61 59 58 57 56 54 52
30 30 29 28 28 28 27 27 27 28 27 28 29 30 30 31 32 33 34 36 37 39 41 43 45 47 49 52 54 56 58 59 60 60 60 60 58 56 55 54 53 50 49
30 29 29 28 28 27 27 27 28 28 28 28 29 30 30 31 32 33 35 36 38 39 41 44 46 48 50 52 55 58 59 59 59 59 58 56 55 53 53 52 50 47 45
30 29 29 28 27 27 27 28 28 28 28 29 29 30 30 31 33 34 35 37 38 40 42 44 46 49 51 54 57 59 58 57 57 56 55 54 53 51 50 48 45 43 41
30 29 28 28 27 27 27 28 28 28 28 29 29 30 31 32 33 34 36 37 38 40 42 44 47 51 53 56 58 58 57 56 55 54 53 51 49 47 46 43 40 38 36
30 29 29 28 27 27 27 27 27 28 28 29 29 30 31 32 33 34 36 37 39 41 44 47 50 52 54 57 58 57 55 53 53 52 50 48 45 43 41 39 37 35 34
29 29 29 28 27 27 27 27 27 27 28 28 29 30 31 32 33 34 36 38 40 43 46 49 51 53 55 57 57 55 53 51 50 49 47 44 42 40 38 36 35 33 32
28 28 28 27 27 27 27 27 27 27 28 28 29 30 30 31 33 35 37 39 42 45 47 50 52 54 55 56 55 53 50 49 48 46 43 41 38 37 36 34 33 31 29
27 27 27 27 27 26 26 26 27 27 27 28 29 29 30 32 34 36 39 41 44 46 49 51 53 54 55 55 53 50 48 47 45 41 39 37 36 35 34 32 31 28 25
26 26 26 26 25 25 25 26 26 26 26 27 29 30 32 34 36 38 40 42 45 47 49 51 53 54 54 53 51 48 46 44 41 38 36 35 34 33 32 30 28 25 22
25 25 24 24 24 24 24 25 25 26 26 28 30 31 33 35 36 38 40 43 45 48 50 51 52 53 53 50 47 45 43 40 37 35 35 34 33 31 30 28 25 22 19
24 23 23 23 23 23 24 24 25 26 27 29 30 31 33 35 36 39 41 43 46 48 50 51 51 51 49 47 44 41 39 37 35 34 33 32 30 29 28 25 22 20 17
23 22 22 23 23 23 24 24 25 26 28 29 30 31 33 35 37 39 42 44 47 48 49 49 49 47 45 43 40 38 37 35 34 32 31 30 29 27 25 23 20 17 15
Wind_Direction
241 243 245 247 249 252 255 258 260 262 264 267 270 273 276 278 279 280 282 283 285 286 288 290 292 294 296 298 299 299 300 300 301 302 303 303 303 303 304 304 303 302 302
241 243 245 247 249 251 254 257 258 261 263 266 270 273 275 276 277 279 280 282 284 286 288 290 292 294 296 297 298 299 300 301 302 302 303 303 304 304 304 304 303 303 302
241 243 246 248 250 252 254 255 257 260 263 266 269 271 273 275 277 278 280 282 283 286 287 290 292 294 296 297 298 299 300 301 302 303 303 304 304 304 304 304 304 303 303
239 242 245 247 249 251 253 254 257 260 264 267 269 271 272 274 276 278 280 281 283 285 287 290 292 294 295 297 298 299 300 301 302 303 304 304 304 304 304 304 304 304 304
239 241 243 246 248 250 251 254 257 260 263 265 267 269 272 274 276 278 280 282 284 286 288 291 292 294 296 297 298 299 300 302 303 304 304 305 305 305 305 305 305 304 304
238 240 242 244 246 248 251 254 257 260 262 264 267 269 271 274 276 278 280 282 285 287 289 291 293 295 296 297 299 300 301 303 304 304 305 306 306 306 306 306 305 305 305
237 238 241 243 246 248 250 253 256 259 262 264 266 269 271 274 276 279 281 284 287 289 290 292 294 295 297 298 300 301 302 304 305 305 306 306 306 306 306 307 307 307 307
236 238 239 242 244 247 250 254 257 259 262 264 266 269 271 274 277 280 283 286 288 290 292 293 295 297 298 299 301 302 304 304 305 306 307 307 307 307 307 307 307 307 308
235 237 239 241 244 247 250 253 256 259 261 264 267 270 273 276 279 282 285 287 289 291 293 295 296 297 299 301 302 303 304 305 306 307 307 307 308 308 308 308 308 309 309
235 238 240 242 244 247 250 253 255 258 261 265 268 271 274 277 281 284 286 288 290 292 295 296 298 299 301 302 304 304 305 306 307 308 308 308 308 308 309 309 310 310 310
236 238 241 243 245 248 250 252 256 259 262 266 270 273 276 280 283 285 287 289 291 294 296 297 299 300 302 304 305 306 307 308 308 308 308 309 309 310 310 310 311 311 312
236 238 241 243 246 249 251 254 257 261 264 268 272 275 279 282 284 286 288 290 293 295 297 299 300 302 303 305 307 307 308 309 310 309 310 310 310 311 311 311 312 312 313
236 239 242 245 248 250 253 256 259 263 267 271 274 277 280 283 285 286 289 292 295 297 298 300 302 304 305 306 308 309 310 311 311 311 311 311 311 311 311 312 313 313 314
237 240 243 246 248 251 254 258 262 266 270 273 275 278 281 284 286 288 291 294 296 298 299 302 304 305 306 308 310 311 312 312 312 312 312 312 312 312 313 313 313 314 314
238 241 244 246 249 252 255 260 264 268 271 274 277 280 282 285 287 290 293 295 297 299 302 304 305 306 308 310 312 313 313 313 313 312 313 313 313 314 314 314 314 315 315
238 242 244 247 250 253 258 262 265 268 272 275 278 281 283 285 288 292 294 297 299 301 303 305 307 308 310 312 313 314 314 313 313 313 314 314 315 315 315 315 315 316 316
238 241 243 246 250 255 260 264 267 270 273 276 279 281 283 287 290 293 296 298 300 303 305 306 308 310 312 313 315 315 314 313 314 314 315 315 316 316 317 317 317 317 318
237 240 243 247 252 257 261 264 267 271 275 277 280 282 285 289 292 295 298 300 302 305 307 308 310 312 313 314 316 315 314 314 315 315 316 316 317 317 318 319 319 320 320
237 241 245 249 253 258 262 265 268 272 275 278 280 283 287 290 293 296 299 302 304 307 309 310 312 313 314 315 316 316 315 315 316 316 316 317 317 318 320 321 321 321 322
238 241 245 250 255 259 263 266 269 273 276 279 282 286 289 292 295 298 301 303 306 308 310 312 313 314 315 317 317 316 315 315 316 316 316 317 317 318 320 321 322 322 322
238 241 246 250 255 259 263 267 271 274 278 281 285 288 291 294 297 300 303 305 307 310 311 313 314 315 316 317 317 317 316 316 316 316 317 317 318 319 320 321 321 322 323
239 243 247 252 255 259 263 268 272 276 280 283 287 290 293 296 300 302 304 307 309 311 313 314 315 316 317 318 317 317 316 316 316 316 317 318 318 319 320 321 322 322 323
239 243 248 253 257 262 266 270 274 278 282 286 289 291 295 298 301 304 306 309 311 313 314 315 316 317 318 318 317 317 317 317 316 316 317 318 318 319 320 320 321 321 321
239 244 249 255 260 264 268 272 276 279 283 288 291 293 296 300 303 306 309 311 313 314 315 317 318 318 319 318 318 318 318 317 316 316 316 317 317 318 319 320 320 319 319
239 245 251 257 261 265 270 274 277 281 286 289 292 295 299 302 305 308 311 313 315 316 317 318 319 319 319 319 318 318 319 318 317 317 317 317 317 318 318 319 318 317 317
241 248 254 259 263 267 271 275 280 284 288 291 294 298 301 304 307 310 312 314 316 317 318 319 320 320 320 320 319 319 319 319 318 317 317 317 317 317 318 318 317 315 315
Height
5706 5709 5712 5715 5717 5719 5721 5722 5723 5724 5724 5724 5724 5724 5723 5722 5721 5719 5717 5715 5713 5710 5708 5705 5702 5699 5696 5692 5688 5684 5679 5674 5670 5665 5659 5653 5647 5642 5636 5629 5623 5617 5611
5696 5699 5702 5705 5708 5710 5712 5713 5714 5715 5715 5716 5716 5715 5715 5714 5712 5711 5709 5707 5705 5702 5700 5697 5694 5691 5687 5683 5679 5675 5670 5665 5660 5655 5649 5643 5636 5630 5623 5617 5610 5603 5596
5686 5690 5693 5696 5699 5701 5703 5705 5705 5706 5707 5707 5707 5707 5706 5705 5704 5702 5700 5699 5696 5694 5691 5689 5686 5682 5679 5674 5670 5665 5660 5655 5649 5644 5638 5631 5625 5617 5611 5604 5596 5588 5581
5677 5680 5684 5688 5690 5693 5694 5696 5697 5698 5699 5699 5699 5699 5698 5696 5695 5694 5692 5690 5688 5686 5683 5680 5677 5674 5670 5665 5661 5656 5650 5645 5639 5633 5626 5619 5612 5604 5597 5590 5582 5574 5566
5668 5672 5676 5679 5682 5684 5686 5687 5689 5690 5690 5690 5690 5690 5689 5688 5687 5685 5684 5682 5680 5677 5675 5672 5668 5665 5660 5656 5651 5646 5640 5634 5627 5621 5614 5607 5599 5591 5583 5575 5567 5558 5550
5659 5664 5667 5670 5673 5675 5677 5679 5680 5681 5682 5682 5682 5681 5681 5680 5679 5677 5676 5674 5671 5669 5666 5663 5659 5656 5651 5646 5641 5635 5629 5623 5616 5609 5602 5594 5586 5577 5569 5559 5550 5542 5534
5651 5655 5659 5662 5665 5667 5669 5670 5672 5673 5673 5674 5674 5673 5673 5672 5671 5669 5667 5665 5663 5660 5657 5654 5650 5646 5641 5636 5630 5624 5618 5610 5604 5597 5589 5580 5572 5563 5554 5544 5534 5525 5516
5643 5647 5650 5653 5656 5658 5660 5662 5664 5664 5665 5665 5665 5665 5665 5664 5662 5661 5659 5657 5654 5651 5648 5644 5640 5636 5631 5626 5620 5613 5606 5599 5592 5584 5576 5567 5557 5547 5538 5529 5519 5510 5501
5635 5639 5642 5645 5648 5650 5652 5654 5655 5656 5657 5657 5657 5657 5656 5655 5654 5652 5650 5648 5645 5642 5639 5635 5630 5626 5621 5615 5609 5603 5595 5587 5579 5571 5562 5552 5543 5533 5523 5514 5504 5495 5486
5628 5631 5634 5638 5640 5643 5645 5646 5647 5648 5649 5649 5649 5649 5648 5647 5646 5644 5642 5639 5637 5633 5630 5625 5620 5615 5610 5604 5598 5591 5583 5575 5567 5558 5549 5539 5529 5519 5509 5499 5489 5479 5469
5620 5624 5627 5630 5633 5635 5637 5638 5640 5641 5641 5641 5641 5641 5640 5639 5637 5635 5633 5630 5627 5624 5620 5615 5610 5605 5599 5593 5586 5579 5571 5562 5554 5544 5535 5525 5515 5505 5495 5484 5474 5464 5455
5613 5617 5620 5623 5625 5627 5629 5631 5632 5633 5633 5633 5633 5632 5631 5630 5628 5626 5624 5621 5618 5614 5610 5605 5600 5594 5588 5582 5575 5567 5559 5550 5540 5531 5521 5511 5502 5491 5481 5471 5461 5451 5442
5606 5609 5613 5615 5618 5620 5622 5623 5624 5625 5625 5625 5625 5624 5623 5622 5620 5617 5615 5611 5608 5604 5600 5595 5590 5584 5577 5570 5563 5555 5546 5537 5527 5517 5507 5498 5488 5478 5468 5458 5448 5439 5430
5599 5603 5606 5608 5610 5613 5614 5616 5617 5617 5617 5617 5617 5616 5614 5613 5611 5608 5605 5602 5598 5594 5590 5585 5579 5573 5566 5559 5551 5543 5534 5524 5514 5504 5494 5484 5474 5464 5454 5445 5437 5428 5419
5592 5596 5598 5601 5603 5605 5607 5608 5609 5609 5610 5609 5609 5607 5606 5604 5602 5599 5596 5592 5588 5584 5579 5574 5568 5562 5555 5547 5539 5530 5521 5511 5501 5491 5481 5471 5461 5451 5442 5434 5425 5417 5409
5585 5589 5591 5594 5596 5598 5599 5600 5601 5601 5601 5601 5600 5599 5597 5595 5592 5590 5587 5583 5579 5574 5569 5564 5557 5551 5544 5536 5527 5518 5508 5498 5488 5478 5468 5459 5450 5441 5432 5423 5414 5407 5399
5579 5582 5584 5587 5589 5590 5592 5593 5593 5593 5593 5592 5591 5590 5588 5586 5584 5580 5577 5573 5569 5564 5559 5553 5547 5540 5532 5524 5515 5505 5495 5486 5476 5466 5457 5448 5439 5430 5421 5413 5405 5397 5391
5571 5574 5577 5579 5581 5583 5584 5585 5585 5585 5585 5584 5582 5581 5579 5577 5574 5571 5568 5564 5559 5554 5549 5543 5536 5529 5520 5512 5502 5493 5483 5474 5465 5455 5446 5438 5429 5421 5412 5404 5397 5390 5384
5564 5567 5570 5572 5574 5575 5576 5577 5577 5577 5576 5575 5574 5572 5570 5568 5565 5562 5558 5554 5549 5544 5538 5532 5525 5517 5508 5500 5490 5480 5471 5462 5454 5445 5436 5428 5420 5412 5405 5398 5391 5384 5378
5557 5560 5562 5564 5566 5567 5568 5569 5569 5569 5568 5567 5565 5564 5562 5559 5556 5553 5549 5544 5540 5534 5528 5521 5513 5505 5496 5487 5478 5469 5460 5452 5443 5435 5427 5419 5412 5405 5398 5392 5385 5379 5373
5550 5552 5555 5557 5559 5560 5561 5561 5561 5560 5560 5558 5557 5555 5553 5550 5547 5543 5539 5535 5529 5523 5517 5509 5502 5493 5484 5475 5466 5457 5449 5441 5434 5426 5418 5411 5405 5398 5392 5386 5380 5374 5368
5543 5545 5548 5550 5551 5552 5553 5553 5553 5552 5551 5550 5548 5546 5544 5541 5538 5534 5529 5524 5519 5512 5506 5498 5490 5481 5473 5464 5455 5447 5439 5431 5424 5417 5410 5404 5398 5392 5386 5380 5374 5369 5364
5536 5538 5540 5542 5543 5544 5545 5545 5545 5544 5543 5542 5540 5538 5535 5532 5528 5524 5519 5514 5508 5502 5494 5486 5478 5469 5461 5452 5444 5436 5429 5422 5415 5409 5403 5397 5392 5386 5380 5375 5370 5365 5361
5529 5531 5533 5535 5536 5537 5537 5537 5537 5536 5535 5533 5531 5529 5526 5522 5519 5514 5509 5504 5497 5490 5483 5475 5466 5458 5449 5441 5434 5427 5420 5413 5407 5402 5396 5391 5385 5380 5375 5370 5365 5361 5357
5522 5524 5526 5528 5529 5529 5529 5529 5529 5528 5526 5525 5522 5520 5516 5513 5509 5504 5499 5493 5486 5479 5471 5463 5455 5447 5439 5431 5424 5418 5412 5406 5400 5395 5389 5384 5379 5374 5370 5365 5361 5357 5354
5516 5518 5519 5520 5521 5522 5522 5521 5521 5519 5518 5516 5513 5510 5507 5503 5499 5494 5489 5482 5476 5468 5460 5452 5444 5436 5429 5422 5416 5410 5404 5399 5393 5388 5383 5378 5373 5369 5365 5361 5357 5354 5351